User: anonymous   Login
Location: Drayton Valley
(53.2170°N, 114.9830°W)
Time: 10:18:22
(UTC-07:00)
Language:

MOZ.5/SAFIR/RUBIN 5/SL-8 - Orbit

View from above orbital plane
View from above orbital plane
View from above satellite
View from above satellite

Ground track
Ground track

The orbit data is extracted from the following two-line orbital elements,

1 28898U 05043G   17054.43491102  .00000042  00000-0  17932-4 0  9990
2 28898  97.9077 209.2452 0019832 181.7629 178.3505 14.60164677603232
Epoch (UTC): 23 February 2017 10:26:16
Eccentricity: 0.0019832
inclination: 97.9077°
perigee height: 678 km
apogee height: 706 km
right ascension of ascending node: 209.2452°
argument of perigee: 181.7629°
revolutions per day: 14.60164677
mean anomaly at epoch: 178.3505°
orbit number at epoch: 60323

The dashed part of the orbit path shows where the satellite is in the earth's shadow,  

DLR